Miscellaneous Local Product
Issued by NWS Hastings, NE

Home | Current Version | Previous Version | Graphics & Text | Print | Product List | Glossary On
Versions: 1 2 3 4 5 6 7 8 9 10 11 12 13 14 15 16 17 18 19 20 21 22 23 24 25 26 27 28 29 30 31 32 33 34 35 36 37 38 39 40 41 42 43 44 45 46 47 48 49 50
099
AXUS43 KGID 301002
MISGRI

GID CWA HOURLY WEATHER ROUNDUP
NATIONAL WEATHER SERVICE HASTINGS NE
500 AM CDT TUE AUG 30 2016

NOTE: "FAIR" INDICATES FEW OR NO CLOUDS BELOW 12,000 FEET WITH NO
SIGNIFICANT WEATHER AND/OR OBSTRUCTIONS TO VISIBILITY.

...SOUTH CENTRAL NEBRASKA...

CITY           SKY/WX    TMP DP  RH WIND       PRES   REMARKS
GRAND ISLAND   PTCLDY    67  65  93 SW3       30.19F
HASTINGS       CLOUDY    67  65  93 CALM      30.20F
KEARNEY        MOCLDY    66  64  94 CALM      30.20R
ORD            CLOUDY    68  65  90 E6        30.20S
YORK           PTCLDY    66  66 100 CALM      30.19S FOG
AURORA         MOCLDY    65  65 100 CALM      30.19F FOG
LEXINGTON      CLOUDY    67  65  95 CALM      30.21S FOG
HOLDREGE       PTCLDY    67  65  94 CALM      30.21R
HEBRON         MOCLDY    68  67  98 CALM      30.17S

...NEBRASKA PANHANDLE...

CITY           SKY/WX    TMP DP  RH WIND       PRES   REMARKS
CHADRON        CLEAR     56  53  90 W5        30.24S
ALLIANCE       PTCLDY    53  51  93 CALM      30.26S
SCOTTSBLUFF    PTCLDY    59  56  89 CALM      30.27S
SIDNEY         PTCLDY    58  56  93 NE3       30.29F

...WESTERN AND NORTH CENTRAL NEBRASKA...

CITY           SKY/WX    TMP DP  RH WIND       PRES   REMARKS
VALENTINE      CLOUDY    62  59  90 W5        30.20S
AINSWORTH      CLOUDY    65  64  95 SW3       30.21R
ONEILL         CLOUDY    68  66  92 S6        30.20R
BROKEN BOW     CLOUDY    66  65  96 CALM      30.20F
IMPERIAL       CLOUDY    64  61  90 W7        30.24F
NORTH PLATTE   CLOUDY    66  65  96 SE3       30.22S
MCCOOK         CLOUDY    67  66  97 CALM      30.21F FOG

...EASTERN NEBRASKA...

CITY           SKY/WX    TMP DP  RH WIND       PRES   REMARKS
NORFOLK        CLOUDY    67  65  93 SE6       30.19S
SO SIOUX CITY  CLOUDY    68  66  93 E3        30.18R
TEKAMAH        CLOUDY    66  65  96 N5        30.17R
COLUMBUS       CLOUDY    68  61  77 NW6       30.19R
ALBION         CLOUDY    67  65  93 CALM      30.20R
OMAHA EPPLEY   CLOUDY    70  66  87 NE3       30.18R
OFFUTT AFB     PTCLDY    69  69 100 NE5       30.17R
MILLARD        CLOUDY    70  68  95 CALM      30.17R
LINCOLN        MOCLDY    69  68  96 CALM      30.17R
NEBRASKA CITY  PTCLDY    68  68 100 CALM      30.17R
BEATRICE       CLOUDY    67  67  98 S3        30.17R
FALLS CITY     CLOUDY    70  69  97 CALM      30.14S

...NORTHERN KANSAS...

CITY           SKY/WX    TMP DP  RH WIND       PRES   REMARKS
GOODLAND       PTCLDY    59  57  93 CALM      30.25S
HILL CITY      MOCLDY    66  64  93 NE3       30.20F FOG
NORTON         PTSUNNY   64  63  94 CALM      30.20  FOG
SMITH CENTER   CLEAR     64  64 100 CALM      30.19F
HAYS           CLOUDY    66  59  77 CALM      30.20R
RUSSELL        FOG       67  67 100 N6        30.18S VSB 1
CONCORDIA      RAIN      68  67  96 E5        30.18S FOG
SALINA         PTCLDY    71  69  93 N8        30.16S
TOPEKA         CLEAR     71  68  90 E5        30.15S



USA.gov is the U.S. government's official web portal to all federal, state and local government web resources and services.